Location: Treviso
(45.6669°N, 12.2430°E)
Time: 20:20:02
(UTC+01:00)

Envisat - Pass Details

Date: 02 December 2022
Orbit: 763 x 765 km, 98.2° (Epoch: 06 February)

Event Time Altitude Azimuth Distance (km) Brightness Sun altitude
Rises 04:17:13 0° 15° (NNE) 3,244 6.4 -33.3°
Reaches altitude 10° 04:19:33 10° 18° (NNE) 2,314 5.7 -32.9°
Enters shadow 04:21:00 19° 22° (NNE) 1,753 5.0 -32.6°
